Location: Maccacari
(45.1333°N, 11.1333°E)
Time: 14:36:27
(UTC+00:00)

S-56A Canister/Altair - Pass Details

Date: 21 January 2021
Orbit: 631 x 2501 km, 38.9° (Epoch: 01 March)

Event Time Altitude Azimuth Distance (km) Brightness Sun altitude
Rises 06:43:55 0° 269° (W) 3,182 10.1 -1.2°
Reaches altitude 10° 06:46:13 10° 259° (W) 2,400 9.6 -0.9°
Maximum altitude 06:51:15 34° 196° (SSW) 1,593 9.4 -0.1°
Drops below altitude 10° 06:58:13 10° 135° (SE) 3,368 12.6 1.0°
Sets 07:02:05 0° 127° (SE) 4,676 14.3 1.6°
